Location: Crescent
(42.8242°N, 73.7329°W)
Time: 08:47:47
(UTC+00:00)

Vanguard 1 - Pass Details

Date: 22 February 2026
Orbit: 653 x 3818 km, 34.2° (Epoch: 12 March)

Event Time Altitude Azimuth Distance (km) Brightness Sun altitude
Rises 23:16:16 0° 273° (W) 5,388 16.0 -8.2°
Reaches altitude 10° 23:19:18 10° 268° (W) 4,732 15.3 -8.7°
Maximum altitude 23:33:19 54° 197° (SSW) 3,602 13.0 -11.3°
Drops below altitude 10° 23:54:46 10° 129° (SE) 6,908 13.9 -15.2°
Enters shadow 23:59:24 - 126° (SE) 7,743 14.1 -16.1°
Sets 00:00:26 0° 125° (SE) 7,928 - -16.2°
